Overview Statistics Trail Chart Weather Telemetry Raw packets
 

This is the latest recevied weather packets stored in our database for station/object KG5CK-1. If no packets are shown the sender has not sent any weather packets the latest 10 day(s).

<< 52 53 54 55 56 57 58 >>
Time Temp. Humidity Pressure Rain* Wind** Luminosity Snow
1788639483 37.22° C 44% 1007.9 hPa 0 mm 1.34 m/s, 46° - -
1788639422 37.22° C 44% 1007.9 hPa 0 mm 1.34 m/s, 46° - -
1788639363 37.22° C 44% 1007.9 hPa 0 mm 1.34 m/s, 46° - -
1788639303 37.22° C 44% 1007.9 hPa 0 mm 0.45 m/s, 36° - -
1788639243 37.22° C 44% 1007.9 hPa 0 mm 0.45 m/s, 36° - -
1788639182 37.22° C 44% 1007.9 hPa 0 mm 0.45 m/s, 36° - -
1788639123 37.22° C 44% 1007.9 hPa 0 mm 0.45 m/s, 36° - -
1788639063 37.22° C 44% 1007.9 hPa 0 mm 0.45 m/s, 36° - -
1788639002 37.78° C 42% 1008 hPa 0 mm 0.89 m/s, 63° - -
1788638942 37.78° C 42% 1008 hPa 0 mm 0.89 m/s, 63° - -
1788638883 37.78° C 42% 1008 hPa 0 mm 0.89 m/s, 63° - -
1788638823 37.78° C 42% 1008 hPa 0 mm 0.89 m/s, 63° - -
1788638763 37.78° C 42% 1008 hPa 0 mm 0.89 m/s, 63° - -
1788638702 37.22° C 45% 1008.1 hPa 0 mm 1.79 m/s, 64° - -
1788638643 37.22° C 45% 1008.1 hPa 0 mm 1.79 m/s, 64° - -
1788638582 37.22° C 45% 1008.1 hPa 0 mm 1.79 m/s, 64° - -
1788638522 37.22° C 45% 1008.1 hPa 0 mm 1.79 m/s, 64° - -
1788638462 37.22° C 45% 1008.1 hPa 0 mm 1.79 m/s, 64° - -
1788638403 37.78° C 43% 1008.3 hPa 0 mm 1.34 m/s, 158° - -
1788638342 37.78° C 43% 1008.3 hPa 0 mm 1.34 m/s, 158° - -
1788638282 37.78° C 43% 1008.3 hPa 0 mm 1.34 m/s, 158° - -
1788638223 37.78° C 43% 1008.3 hPa 0 mm 1.34 m/s, 158° - -
1788638163 37.78° C 43% 1008.3 hPa 0 mm 1.34 m/s, 158° - -
1788638102 37.22° C 45% 1008.3 hPa 0 mm 2.24 m/s, 127° - -
1788638043 37.22° C 45% 1008.3 hPa 0 mm 2.24 m/s, 127° - -

* Rain latest hour (hover to see other rain measurements)
** Current wind speed in m/s (hover to see current wind gust speed)